This is the latest recevied weather packets stored in our database for station/object DK7LH-6. If no packets are shown the sender has not sent any weather packets the latest 1 day(s).
| Time | Temp. | Humidity | Pressure | Rain* | Wind** | Luminosity | Snow |
|---|---|---|---|---|---|---|---|
| 1777967163 | 8.33° C | 88% | 1011.3 hPa | 0 mm | 0.89 m/s, 32° | 50 W/m² | - |
| 1777966233 | 8.33° C | 88% | 1011.2 hPa | 0 mm | 0.89 m/s, 26° | 38 W/m² | - |
| 1777965366 | 8.33° C | 90% | 1011 hPa | 0 mm | 1.34 m/s, 33° | 38 W/m² | - |
| 1777964436 | 8.33° C | 91% | 1011.2 hPa | 0 mm | 0.89 m/s, 11° | 27 W/m² | - |
| 1777963567 | 8.33° C | 92% | 1011.2 hPa | 0 mm | 0.89 m/s, 7° | 28 W/m² | - |
| 1777962637 | 8.33° C | 92% | 1011.1 hPa | 0 mm | 0.89 m/s, 87° | 35 W/m² | - |
| 1777961769 | 8.33° C | 93% | 1011.2 hPa | 0 mm | 0.45 m/s, 12° | 32 W/m² | - |
| 1777960839 | 8.33° C | 93% | 1011.2 hPa | 0 mm | 1.79 m/s, 30° | 22 W/m² | - |
| 1777959971 | 8.33° C | 94% | 1011.1 hPa | 0 mm | 1.34 m/s, 1° | 23 W/m² | - |
| 1777959072 | 8.33° C | 93% | 1011.2 hPa | 0 mm | 0.45 m/s, 11° | 16 W/m² | - |
| 1777958142 | 8.33° C | 93% | 1011 hPa | 0 mm | 0.45 m/s, 21° | 8 W/m² | - |
| 1777957274 | 8.33° C | 92% | 1011 hPa | 0 mm | 1.34 m/s, 6° | 6 W/m² | - |
| 1777956344 | 8.33° C | 93% | 1011 hPa | 0 mm | 1.34 m/s, 57° | 4 W/m² | - |
| 1777955476 | 8.33° C | 93% | 1011.1 hPa | 0 mm | 1.34 m/s, 18° | 4 W/m² | - |
| 1777954546 | 8.33° C | 93% | 1011 hPa | 0 mm | 0.89 m/s, 27° | 1 W/m² | - |
| 1777953623 | 8.33° C | 95% | 1011 hPa | 0 mm | 1.79 m/s, 1° | 0 W/m² | - |
| 1777952748 | 8.33° C | 95% | 1011 hPa | 0 mm | 1.34 m/s, 27° | 0 W/m² | - |
| 1777951818 | 8.33° C | 96% | 1011.2 hPa | 0 mm | 1.34 m/s, 26° | 0 W/m² | - |
| 1777950950 | 8.33° C | 96% | 1011.2 hPa | 0 mm | 2.24 m/s, 17° | 0 W/m² | - |
| 1777950020 | 8.33° C | 97% | 1011.2 hPa | 0 mm | 1.79 m/s, 12° | 0 W/m² | - |
| 1777949152 | 8.33° C | 97% | 1011.3 hPa | 0 mm | 1.34 m/s, 13° | 0 W/m² | - |
| 1777948222 | 8.33° C | 97% | 1011.3 hPa | 0 mm | 1.79 m/s, 20° | 0 W/m² | - |
* Rain latest hour (hover to see other rain measurements)
** Current wind speed in m/s (hover to see current wind gust speed)